Location: SE Lincoln, NE
(40.7805°N, 96.6275°W)
Time: 03:33:44
(UTC-05:00)

Cosmos 2297 - Pass Details

Date: 15 May 2021
Orbit: 837 x 857 km, 71.0° (Epoch: 23 June)

Event Time Altitude Azimuth Distance (km) Brightness Sun altitude
Exits shadow 22:12:48 22° 152° (SSE) 1,766 4.8 -15.6°
Maximum altitude 22:15:36 35° 104° (ESE) 1,345 4.3 -16.0°
Drops below altitude 10° 22:20:40 10° 41° (NE) 2,473 6.2 -16.7°
Sets 22:23:18 0° 33° (NNE) 3,409 7.0 -17.0°
